This is the latest recevied weather packets stored in our database for station/object IK6IHU-3. If no packets are shown the sender has not sent any weather packets the latest 1 day(s).
| Time | Temp. | Humidity | Pressure | Rain* | Wind** | Luminosity | Snow |
|---|---|---|---|---|---|---|---|
| 1778048005 | 17.22° C | 67% | 1012.2 hPa | 0 mm | - | 0 W/m² | - |
| 1778047945 | 17.22° C | 68% | 1012.1 hPa | 0 mm | - | 0 W/m² | - |
| 1778047765 | 16.67° C | 69% | 1012.2 hPa | 0 mm | - | 0 W/m² | - |
| 1778047705 | 15.56° C | 71% | 1012.1 hPa | 0 mm | - | 0 W/m² | - |
| 1778047585 | 15.56° C | 71% | 1012.2 hPa | 0 mm | - | 0 W/m² | - |
| 1778047464 | 15.56° C | 71% | 1012.2 hPa | 0 mm | - | 0 W/m² | - |
| 1778047405 | 15.56° C | 71% | 1012.1 hPa | 0 mm | - | 0 W/m² | - |
| 1778047345 | 15.56° C | 71% | 1012.2 hPa | 0 mm | - | 0 W/m² | - |
| 1778047285 | 15.56° C | 71% | 1012.1 hPa | 0 mm | - | 0 W/m² | - |
| 1778047225 | 15.56° C | 71% | 1012.2 hPa | 0 mm | - | 0 W/m² | - |
| 1778047165 | 15.56° C | 71% | 1012 hPa | 0 mm | - | 0 W/m² | - |
| 1778046985 | 16.11° C | 70% | 1012.3 hPa | 0 mm | - | 0 W/m² | - |
| 1778046925 | 16.11° C | 70% | 1012.2 hPa | 0 mm | - | 0 W/m² | - |
| 1778046865 | 16.11° C | 70% | 1012.3 hPa | 0 mm | - | 0 W/m² | - |
| 1778046685 | 16.11° C | 69% | 1012.2 hPa | 0 mm | - | 0 W/m² | - |
| 1778046625 | 16.11° C | 68% | 1012.2 hPa | 0 mm | - | 0 W/m² | - |
| 1778046505 | 16.67° C | 68% | 1012.3 hPa | 0 mm | - | 0 W/m² | - |
| 1778046445 | 16.67° C | 68% | 1012.3 hPa | 0 mm | - | 0 W/m² | - |
| 1778046385 | 16.67° C | 67% | 1012.2 hPa | 0 mm | - | 0 W/m² | - |
| 1778046265 | 17.22° C | 66% | 1012.3 hPa | 0 mm | - | 0 W/m² | - |
| 1778046145 | 16.67° C | 66% | 1012 hPa | 0 mm | - | 0 W/m² | - |
| 1778046085 | 16.67° C | 67% | 1012 hPa | 0 mm | - | 0 W/m² | - |
| 1778046025 | 16.11° C | 67% | 1012.1 hPa | 0 mm | - | 0 W/m² | - |
| 1778045965 | 16.11° C | 67% | 1012.1 hPa | 0 mm | - | 0 W/m² | - |
| 1778045905 | 15.56° C | 67% | 1011.9 hPa | 0 mm | - | 0 W/m² | - |
* Rain latest hour (hover to see other rain measurements)
** Current wind speed in m/s (hover to see current wind gust speed)